Location: Hradec Kralove
(50.2170°N, 15.8330°E)
Time: 05:31:35
(UTC+02:00)

Explorer 7 - Pass Details

Date: 05 February 2023
Orbit: 478 x 657 km, 50.3° (Epoch: 25 March)

Event Time Altitude Azimuth Distance (km) Brightness Sun altitude
Rises 12:18:52 0° 245° (WSW) 2,670 10.7 23.8°
Reaches altitude 10° 12:21:01 10° 242° (WSW) 1,811 10.0 23.8°
Maximum altitude 12:25:07 65° 161° (SSE) 628 8.0 23.8°
Drops below altitude 10° 12:29:30 10° 80° (E) 1,933 9.5 23.7°
Sets 12:31:52 0° 77° (ENE) 2,870 10.3 23.7°
